Regional Weather Roundup
Issued by NWS

Home | Current Version | Previous Version | Graphics & Text | Print | Product List | Glossary On
Versions: 1 2 3 4 5 6 7 8 9 10 11 12 13 14 15 16 17 18 19 20 21 22 23 24 25 26 27 28 29 30 31 32 33 34 35 36 37 38 39 40 41 42 43 44 45 46 47 48 49 50
000
ASUS43 KMKX 262221
RWRWI

WISCONSIN REGIONAL WEATHER ROUNDUP
NATIONAL WEATHER SERVICE MILWAUKEE/SULLIVAN WI
500 PM CDT MON JUN 26 2017

NOTE: "FAIR" INDICATES FEW OR NO CLOUDS BELOW 12,000 FEET WITH NO
SIGNIFICANT WEATHER AND/OR OBSTRUCTIONS TO VISIBILITY.

WIZ001-002-006>008-014>016-023>028-262300-
NORTHWEST WISCONSIN

CITY           SKY/WX    TMP DP  RH WIND       PRES   REMARKS
SUPERIOR ARPT  NOT AVBL
ASHLAND        LGT RAIN  62  47  57 N20G26    30.07R
HAYWARD        CLOUDY    62  48  60 SW6       30.09R
SIREN          CLOUDY    68  42  37 NW12      30.09F
CUMBERLAND     MOSUNNY   63  45  51 W5        30.11S
RICE LAKE      MOSUNNY   64  47  53 N6        30.12F
CHETEK         PTSUNNY   64  48  57 N6        30.10F
LADYSMITH      PTSUNNY   58  50  75 NW6       30.11F
EAU CLAIRE     RAIN      56  50  80 NW10G26   30.10R
MENOMONIE      PTSUNNY   65  44  45 NW8       30.10S
NEW RICHMOND   CLOUDY    63  46  54 CALM      30.13F
OSCEOLA        MOSUNNY   69  44  40 NW12      30.14F
$$

WIZ003>005-009-010-017-018-262300-
NORTH CENTRAL WISCONSIN

CITY           SKY/WX    TMP DP  RH WIND       PRES   REMARKS
MANITOWISH WTR MOSUNNY   62  44  50 N9        30.04F
ARBOR VITAE    MOSUNNY   64  42  43 N13       30.04F
WOODRUFF       MOSUNNY   64  42  43 N13       30.04F
RHINELANDER    PTSUNNY   61  45  55 VRB5      30.05F
EAGLE RIVER    MOSUNNY   62  41  45 NW12      30.04F
LAND O LAKES   MOSUNNY   64  40  41 NW10G16   30.05S
PHILLIPS       MOSUNNY   62  46  56 W9        30.06F
TOMAHAWK       NOT AVBL
MEDFORD        SUNNY     64  41  44 N8        30.07S
MERRILL        MOSUNNY   60  44  55 N6        30.06F
$$

WIZ029-030-035-036-043>047-262300-
CENTRAL WISCONSIN

CITY           SKY/WX    TMP DP  RH WIND       PRES   REMARKS
WAUSAU         PTSUNNY   62  41  46 N13G21    30.05S
MOSINEE        PTSUNNY   63  46  55 NW13      30.08F
MARSHFIELD     SUNNY     65  45  48 N9        30.06F
STEVENS POINT  MOSUNNY   62  41  47 NW14      30.06F
WAUPACA        PTSUNNY   65  44  48 N15G23    30.05S
WAUTOMA        CLOUDY    63  45  51 NW12G20   30.06F
WISC RAPIDS    MOSUNNY   66  45  46 N15       30.08F
CAMP DOUGLAS   PTSUNNY   63  48  59 N6        30.08S
$$

WIZ011>013-019>022-031-037>040-048>050-262300-
NORTHEAST WISCONSIN

CITY           SKY/WX    TMP DP  RH WIND       PRES   REMARKS
ANTIGO         CLOUDY    58  44  59 N12G22    30.06S
SHAWANO        CLOUDY    63  51  64 N7        30.03S
OCONTO         CLOUDY    57  53  85 N5        30.02S
STURGEON BAY     N/A     58  53  84 N12         N/A
GREEN BAY      LGT RAIN  57  55  93 NW10      30.03R
MANITOWOC      CLOUDY    62  48  60 NW18      30.01F
APPLETON       PTSUNNY   54  48  82 NW17      30.03S
CLINTONVILLE   CLOUDY    61  45  55 NW14      30.04S
OSHKOSH        MOSUNNY   63  47  55 NW16      30.03S
$$

WIZ032>034-041-042-053>061-262300-
SOUTHWEST WISCONSIN

CITY           SKY/WX    TMP DP  RH WIND       PRES   REMARKS
LA CROSSE      MOSUNNY   74  44  34 NW9       30.08F
SPARTA         MOSUNNY   68  44  43 NW12      30.09F
VIROQUA        MOSUNNY   66  47  50 N8        30.10S
BOSCOBEL       MOSUNNY   69  42  37 NW13      30.09F
PRAIRIE DU CHI MOSUNNY   68  38  33 NW12      30.09F
PLATTEVILLE    SUNNY     69  42  38 NW16      30.08F
$$

WIZ056-057-062-063-064-067-068-262300-
SOUTH CENTRAL WISCONSIN

CITY           SKY/WX    TMP DP  RH WIND       PRES   REMARKS
REEDSBURG      CLOUDY    64  46  52 N9        30.08F
BARABOO/DELLS  PTSUNNY   64  44  48 NW7G17    30.08S
LONE ROCK      PTSUNNY   68  44  42 W12       30.08F
MINERAL POINT  MOSUNNY   68  41  37 NW15      30.09S
MADISON        PTSUNNY   61  46  57 NW10      30.07S
MIDDLETON      PTSUNNY   64  44  48 NW20G28   30.08S
WATERTOWN      NOT AVBL
MONROE         MOSUNNY   66  37  34 NW15G24   30.07S
JANESVILLE     MOSUNNY   68  39  34 NW18G28   30.06R
$$

WIZ051-052-058>065-066-070>072-262300-
SOUTHEAST WISCONSIN

CITY           SKY/WX    TMP DP  RH WIND       PRES   REMARKS
MILWAUKEE      PTSUNNY   66  44  45 W21G31    30.03F
WAUKESHA       PTSUNNY   59  45  58 NW15      30.05F
MILWAUKEE/TIMM CLOUDY    63  41  45 NW16G25   30.04F
RACINE         CLOUDY    64  43  46 NW15G26   30.05F
KENOSHA        PTSUNNY   62  45  53 NW14G24   30.05R
FOND DU LAC    PTSUNNY   61  44  53 NW13      30.04S
SHEBOYGAN      MOSUNNY   62  50  64 NW15G23   30.02F
WEST BEND      PTSUNNY   61  43  51 NW13G26   30.03S
JUNEAU         PTSUNNY   62  45  55 W14G21    30.06S
$$

LSZ147-162-262300-
LAKE SUPERIOR

STATION/POSITION TIME  TEMP    WIND        PRES    WAVE
                       AIR SEA DIR/SP/G            HT/PER
                 (UTC) (F)     (DEG/KT/KT) (MB)    (FT/S)
W MID LAKE BUOY  2150   46 39  220/  8/ 10 1017.0F   1/ 4
DEVILS ISLAND    2200   56     240/ 13/ 17 1017.3F
PORT WING        2035   65     150/  2     1017.9
SAXON HARBOR     2140   66     350/  3/  4 1017.3F
$$

LMZ867-665-643>646-262300-
LAKE MICHIGAN

STATION/POSITION TIME  TEMP    WIND        PRES    WAVE
                       AIR SEA DIR/SP/G            HT/PER
                 (UTC) (F)     (DEG/KT/KT) (MB)    (FT/S)
CHAMBERS ISLAND  2140   59     340/  9/ 11 1015.6S
S GREEN BAY BUOY 2200   57     330/  6/  8 1016.2
N MID LAKE BUOY  2150   56 56  330/ 16/ 17 1015.6R   2/ 4
NORTHPORT PIER   2140   57     340/ 16/ 19 1015.6R
KEWAUNEE LAKESHO 2154   58     330/  8/ 10 1015.6S
SHEBOYGAN LAKESH 2200   60     310/ 13/ 15 1016.3F
PORT WASHINGTON  2140   64     290/ 11/ 19 1017.3F
ATWATER BUOY     2109   60 55  310/ 14/ 17 1016.8F
MILWAUKEE LAKESH 2200   62     310/ 14/ 19   N/A
S MID LAKE BUOY  2150   59 61  320/ 12/ 16 1016.9F   3/ 4
KENOSHA   LAKESH 2200   62     310/ 15/ 21 1016.9
$$

TC  - TEMPERATURE IN CELSIUS
VSB - VISIBILITY IN STATUTE MILES
WCI - WIND CHILL INDEX
HX  - HEAT INDEX





USA.gov is the U.S. government's official web portal to all federal, state and local government web resources and services.